Time,TemperatureF,DewpointF,PressureIn,WindDirection,WindDirectionDegrees,WindSpeedMPH,WindSpeedGustMPH,Humidity,HourlyPrecipIn,Conditions,Clouds,dailyrainin,SoftwareType,DateUTC
2013-05-17 07:21:00,45.4,39.9,29.76,ESE,102,2.0,7.0,81,0.00,,,0.00,Wunderground v.1.15,2013-05-17 11:21:00,
2013-05-17 07:26:00,45.5,39.7,29.76,East,94,3.0,7.0,80,0.00,,,0.00,Wunderground v.1.15,2013-05-17 11:26:00,
2013-05-17 07:31:00,45.6,39.8,29.77,East,90,2.0,2.0,80,0.00,,,0.00,Wunderground v.1.15,2013-05-17 11:31:00,
2013-05-17 07:36:00,45.6,39.8,29.77,East,97,3.0,3.0,80,0.00,,,0.00,Wunderground v.1.15,2013-05-17 11:36:00,
2013-05-17 07:41:00,45.7,39.9,29.77,East,92,4.0,5.0,80,0.00,,,0.00,Wunderground v.1.15,2013-05-17 11:41:00,
2013-05-17 07:51:00,46.2,40.4,29.77,East,92,2.0,2.0,80,0.00,,,0.00,Wunderground v.1.15,2013-05-17 11:51:00,
2013-05-17 07:56:00,46.4,40.6,29.77,East,94,2.0,7.0,80,0.00,,,0.00,Wunderground v.1.15,2013-05-17 11:56:00,
2013-05-17 08:01:00,46.5,40.7,29.77,East,91,3.0,5.0,80,0.00,,,0.00,Wunderground v.1.15,2013-05-17 12:01:00,
2013-05-17 08:06:00,46.7,40.5,29.77,East,98,3.0,5.0,79,0.00,,,0.00,Wunderground v.1.15,2013-05-17 12:06:00,
2013-05-17 08:11:00,46.9,40.7,29.78,East,92,2.0,4.0,79,0.00,,,0.00,Wunderground v.1.15,2013-05-17 12:11:00,
2013-05-17 08:21:00,47.2,41.0,29.78,East,83,5.0,7.0,79,0.00,,,0.00,Wunderground v.1.15,2013-05-17 12:21:00,
2013-05-17 08:26:00,47.4,41.2,29.78,East,92,4.0,7.0,79,0.00,,,0.00,Wunderground v.1.15,2013-05-17 12:26:00,
2013-05-17 08:31:00,47.6,41.4,29.78,East,96,3.0,6.0,79,0.00,,,0.00,Wunderground v.1.15,2013-05-17 12:31:00,
2013-05-17 08:36:00,47.7,41.2,29.78,ESE,109,3.0,6.0,78,0.00,,,0.00,Wunderground v.1.15,2013-05-17 12:36:00,
2013-05-17 08:41:00,47.8,41.3,29.78,ESE,105,3.0,3.0,78,0.00,,,0.00,Wunderground v.1.15,2013-05-17 12:41:00,
2013-05-17 08:46:00,48.2,42.0,29.78,ESE,105,2.0,4.0,79,0.00,,,0.00,Wunderground v.1.15,2013-05-17 12:46:00,
2013-05-17 08:56:00,48.6,41.4,29.79,East,101,2.0,4.0,76,0.00,,,0.00,Wunderground v.1.15,2013-05-17 12:56:00,
2013-05-17 09:01:00,48.7,41.8,29.80,East,91,2.0,9.0,77,0.00,,,0.00,Wunderground v.1.15,2013-05-17 13:01:00,
2013-05-17 09:06:00,48.5,40.9,29.80,East,94,3.0,9.0,75,0.00,,,0.00,Wunderground v.1.15,2013-05-17 13:06:00,
2013-05-17 09:11:00,48.8,41.6,29.80,East,94,2.0,2.0,76,0.00,,,0.00,Wunderground v.1.15,2013-05-17 13:11:00,
2013-05-17 09:16:00,49.3,42.1,29.80,East,94,1.0,4.0,76,0.00,,,0.00,Wunderground v.1.15,2013-05-17 13:16:00,
2013-05-17 09:22:00,49.6,41.7,29.80,ESE,102,1.0,4.0,74,0.00,,,0.00,Wunderground v.1.15,2013-05-17 13:22:00,
2013-05-17 09:27:00,49.9,42.3,29.80,East,101,2.0,4.0,75,0.00,,,0.00,Wunderground v.1.15,2013-05-17 13:27:00,
2013-05-17 09:32:00,50.0,42.4,29.81,East,79,2.0,2.0,75,0.00,,,0.00,Wunderground v.1.15,2013-05-17 13:32:00,
2013-05-17 09:37:00,50.1,41.8,29.81,East,90,2.0,6.0,73,0.00,,,0.00,Wunderground v.1.15,2013-05-17 13:37:00,
2013-05-17 09:42:00,50.2,41.2,29.81,East,101,2.0,2.0,71,0.00,,,0.00,Wunderground v.1.15,2013-05-17 13:42:00,
2013-05-17 09:47:00,50.2,40.8,29.81,East,84,3.0,6.0,70,0.00,,,0.00,Wunderground v.1.15,2013-05-17 13:47:00,
2013-05-17 09:56:00,50.9,41.5,29.81,East,95,2.0,4.0,70,0.00,,,0.00,Wunderground v.1.15,2013-05-17 13:56:00,
2013-05-17 10:01:00,51.4,41.9,29.81,East,100,2.0,2.0,70,0.00,,,0.00,Wunderground v.1.15,2013-05-17 14:01:00,
2013-05-17 10:06:00,51.5,40.9,29.81,East,86,3.0,3.0,67,0.00,,,0.00,Wunderground v.1.15,2013-05-17 14:06:00,
2013-05-17 10:11:00,51.7,41.5,29.82,East,90,4.0,6.0,68,0.00,,,0.00,Wunderground v.1.15,2013-05-17 14:11:00,
2013-05-17 10:16:00,51.8,41.6,29.81,East,94,3.0,6.0,68,0.00,,,0.00,Wunderground v.1.15,2013-05-17 14:16:00,
2013-05-17 10:21:00,52.1,41.5,29.81,East,94,2.0,2.0,67,0.00,,,0.00,Wunderground v.1.15,2013-05-17 14:21:00,
2013-05-17 10:31:00,52.5,41.5,29.81,East,86,3.0,3.0,66,0.00,,,0.00,Wunderground v.1.15,2013-05-17 14:31:00,
2013-05-17 10:36:00,53.2,41.7,29.82,East,82,2.0,6.0,65,0.00,,,0.00,Wunderground v.1.15,2013-05-17 14:36:00,
2013-05-17 10:41:00,53.5,42.0,29.82,ESE,107,2.0,4.0,65,0.00,,,0.00,Wunderground v.1.15,2013-05-17 14:41:00,
2013-05-17 10:46:00,53.5,42.4,29.82,ESE,107,2.0,4.0,66,0.00,,,0.00,Wunderground v.1.15,2013-05-17 14:46:00,
2013-05-17 10:51:00,54.0,42.5,29.82,East,93,2.0,7.0,65,0.00,,,0.00,Wunderground v.1.15,2013-05-17 14:51:00,
2013-05-17 11:01:00,54.4,43.3,29.82,East,100,3.0,3.0,66,0.00,,,0.00,Wunderground v.1.15,2013-05-17 15:01:00,
2013-05-17 11:06:00,54.2,42.7,29.82,ENE,72,3.0,4.0,65,0.00,,,0.00,Wunderground v.1.15,2013-05-17 15:06:00,
2013-05-17 11:11:00,54.5,41.7,29.82,East,94,3.0,3.0,62,0.00,,,0.00,Wunderground v.1.15,2013-05-17 15:11:00,
2013-05-17 11:16:00,55.0,42.6,29.83,East,96,3.0,5.0,63,0.00,,,0.00,Wunderground v.1.15,2013-05-17 15:16:00,
2013-05-17 11:21:00,55.1,43.5,29.83,East,98,3.0,3.0,65,0.00,,,0.00,Wunderground v.1.15,2013-05-17 15:21:00,
2013-05-17 11:26:00,55.3,42.5,29.83,East,91,3.0,6.0,62,0.00,,,0.00,Wunderground v.1.15,2013-05-17 15:26:00,
2013-05-17 11:31:00,55.2,42.8,29.83,East,80,3.0,7.0,63,0.00,,,0.00,Wunderground v.1.15,2013-05-17 15:31:00,
2013-05-17 11:36:00,55.1,42.7,29.83,East,93,4.0,7.0,63,0.00,,,0.00,Wunderground v.1.15,2013-05-17 15:36:00,
2013-05-17 11:41:00,54.9,41.7,29.83,East,96,4.0,4.0,61,0.00,,,0.00,Wunderground v.1.15,2013-05-17 15:41:00,
2013-05-17 11:46:00,55.0,42.6,29.83,ESE,105,4.0,5.0,63,0.00,,,0.00,Wunderground v.1.15,2013-05-17 15:46:00,
2013-05-17 11:51:00,55.2,41.5,29.83,ESE,102,3.0,3.0,60,0.00,,,0.00,Wunderground v.1.15,2013-05-17 15:51:00,
2013-05-17 11:56:00,55.6,44.4,29.83,East,90,3.0,6.0,66,0.00,,,0.00,Wunderground v.1.15,2013-05-17 15:56:00,
2013-05-17 12:06:00,56.0,42.7,29.83,East,86,4.0,4.0,61,0.00,,,0.00,Wunderground v.1.15,2013-05-17 16:06:00,
2013-05-17 12:11:00,56.2,43.3,29.83,East,86,3.0,3.0,62,0.00,,,0.00,Wunderground v.1.15,2013-05-17 16:11:00,
2013-05-17 12:16:00,56.3,42.6,29.83,East,99,3.0,4.0,60,0.00,,,0.00,Wunderground v.1.15,2013-05-17 16:16:00,
2013-05-17 12:21:00,56.4,43.5,29.83,East,97,3.0,4.0,62,0.00,,,0.00,Wunderground v.1.15,2013-05-17 16:21:00,
2013-05-17 12:26:00,56.5,43.2,29.83,ESE,102,4.0,4.0,61,0.00,,,0.00,Wunderground v.1.15,2013-05-17 16:26:00,
2013-05-17 12:31:00,56.7,43.0,29.83,ESE,102,4.0,4.0,60,0.00,,,0.00,Wunderground v.1.15,2013-05-17 16:31:00,
2013-05-17 12:41:00,57.0,42.4,29.83,ENE,74,3.0,3.0,58,0.00,,,0.00,Wunderground v.1.15,2013-05-17 16:41:00,
2013-05-17 12:46:00,56.9,43.2,29.83,ENE,74,2.0,4.0,60,0.00,,,0.00,Wunderground v.1.15,2013-05-17 16:46:00,
2013-05-17 12:51:00,56.5,42.8,29.83,NNE,19,1.0,4.0,60,0.00,,,0.00,Wunderground v.1.15,2013-05-17 16:51:00,
2013-05-17 12:56:00,57.1,43.3,29.83,East,81,2.0,4.0,60,0.00,,,0.00,Wunderground v.1.15,2013-05-17 16:56:00,
2013-05-17 13:01:00,57.4,43.2,29.83,East,87,3.0,5.0,59,0.00,,,0.00,Wunderground v.1.15,2013-05-17 17:01:00,
2013-05-17 13:07:00,57.3,42.2,29.83,East,101,4.0,5.0,57,0.00,,,0.00,Wunderground v.1.15,2013-05-17 17:07:00,
2013-05-17 13:12:00,57.7,43.5,29.83,East,86,3.0,3.0,59,0.00,,,0.00,Wunderground v.1.15,2013-05-17 17:12:00,
2013-05-17 13:17:00,57.6,42.5,29.83,ESE,107,2.0,7.0,57,0.00,,,0.00,Wunderground v.1.15,2013-05-17 17:17:00,
2013-05-17 13:22:00,57.9,43.2,29.83,ESE,109,2.0,4.0,58,0.00,,,0.00,Wunderground v.1.15,2013-05-17 17:22:00,
2013-05-17 13:27:00,58.1,42.5,29.83,East,90,1.0,4.0,56,0.00,,,0.00,Wunderground v.1.15,2013-05-17 17:27:00,
2013-05-17 13:32:00,58.0,42.8,29.83,NE,48,2.0,2.0,57,0.00,,,0.00,Wunderground v.1.15,2013-05-17 17:32:00,
2013-05-17 13:42:00,58.0,42.8,29.83,ENE,76,4.0,4.0,57,0.00,,,0.00,Wunderground v.1.15,2013-05-17 17:42:00,
2013-05-17 13:47:00,58.1,42.5,29.83,East,93,3.0,5.0,56,0.00,,,0.00,Wunderground v.1.15,2013-05-17 17:47:00,
2013-05-17 13:52:00,58.0,42.4,29.83,East,95,3.0,3.0,56,0.00,,,0.00,Wunderground v.1.15,2013-05-17 17:52:00,
2013-05-17 13:57:00,58.3,41.7,29.83,East,86,2.0,4.0,54,0.00,,,0.00,Wunderground v.1.15,2013-05-17 17:57:00,
2013-05-17 14:02:00,58.5,42.4,29.83,East,86,3.0,3.0,55,0.00,,,0.00,Wunderground v.1.15,2013-05-17 18:02:00,
2013-05-17 14:07:00,58.9,42.8,29.83,ESE,117,3.0,4.0,55,0.00,,,0.00,Wunderground v.1.15,2013-05-17 18:07:00,
2013-05-17 14:16:00,59.8,43.6,29.83,East,100,1.0,4.0,55,0.00,,,0.00,Wunderground v.1.15,2013-05-17 18:16:00,
2013-05-17 14:21:00,60.0,43.3,29.83,ENE,71,2.0,2.0,54,0.00,,,0.00,Wunderground v.1.15,2013-05-17 18:21:00,
2013-05-17 14:26:00,59.9,42.2,29.83,East,82,3.0,3.0,52,0.00,,,0.00,Wunderground v.1.15,2013-05-17 18:26:00,
2013-05-17 14:31:00,60.0,43.3,29.83,East,92,3.0,7.0,54,0.00,,,0.00,Wunderground v.1.15,2013-05-17 18:31:00,
2013-05-17 14:36:00,60.0,41.8,29.83,NNW,329,2.0,7.0,51,0.00,,,0.00,Wunderground v.1.15,2013-05-17 18:36:00,
2013-05-17 14:46:00,60.0,40.8,29.83,East,95,3.0,4.0,49,0.00,,,0.00,Wunderground v.1.15,2013-05-17 18:46:00,
2013-05-17 14:51:00,59.6,41.9,29.83,East,83,2.0,2.0,52,0.00,,,0.00,Wunderground v.1.15,2013-05-17 18:51:00,
2013-05-17 14:56:00,60.2,42.0,29.83,NNE,14,2.0,5.0,51,0.00,,,0.00,Wunderground v.1.15,2013-05-17 18:56:00,
2013-05-17 15:01:00,60.5,41.8,29.82,ENE,68,2.0,7.0,50,0.00,,,0.00,Wunderground v.1.15,2013-05-17 19:01:00,
2013-05-17 15:06:00,60.6,41.3,29.83,East,80,3.0,7.0,49,0.00,,,0.00,Wunderground v.1.15,2013-05-17 19:06:00,
2013-05-17 15:11:00,60.7,40.9,29.83,ESE,105,3.0,4.0,48,0.00,,,0.00,Wunderground v.1.15,2013-05-17 19:11:00,
2013-05-17 15:21:00,61.2,40.8,29.82,East,86,1.0,1.0,47,0.00,,,0.00,Wunderground v.1.15,2013-05-17 19:21:00,
2013-05-17 15:26:00,61.2,39.7,29.82,NE,51,3.0,3.0,45,0.00,,,0.00,Wunderground v.1.15,2013-05-17 19:26:00,
2013-05-17 15:31:00,61.1,41.2,29.82,NNE,24,2.0,6.0,48,0.00,,,0.00,Wunderground v.1.15,2013-05-17 19:31:00,
2013-05-17 15:36:00,60.7,40.9,29.82,East,95,2.0,6.0,48,0.00,,,0.00,Wunderground v.1.15,2013-05-17 19:36:00,
2013-05-17 15:41:00,60.6,40.8,29.82,East,95,2.0,2.0,48,0.00,,,0.00,Wunderground v.1.15,2013-05-17 19:41:00,
2013-05-17 15:51:00,61.1,41.2,29.82,ESE,105,3.0,3.0,48,0.00,,,0.00,Wunderground v.1.15,2013-05-17 19:51:00,
2013-05-17 15:56:00,61.4,42.1,29.82,East,96,2.0,4.0,49,0.00,,,0.00,Wunderground v.1.15,2013-05-17 19:56:00,
2013-05-17 16:01:00,62.1,41.1,29.82,East,86,3.0,3.0,46,0.00,,,0.00,Wunderground v.1.15,2013-05-17 20:01:00,
2013-05-17 16:06:00,61.6,40.6,29.82,ENE,61,3.0,4.0,46,0.00,,,0.00,Wunderground v.1.15,2013-05-17 20:06:00,
2013-05-17 16:11:00,61.5,39.9,29.82,ENE,61,1.0,1.0,45,0.00,,,0.00,Wunderground v.1.15,2013-05-17 20:11:00,
2013-05-17 16:16:00,62.1,41.6,29.82,East,97,1.0,4.0,47,0.00,,,0.00,Wunderground v.1.15,2013-05-17 20:16:00,
2013-05-17 16:26:00,62.3,41.2,29.82,ESE,109,2.0,7.0,46,0.00,,,0.00,Wunderground v.1.15,2013-05-17 20:26:00,
2013-05-17 16:31:00,62.3,41.8,29.82,ENE,76,3.0,4.0,47,0.00,,,0.00,Wunderground v.1.15,2013-05-17 20:31:00,
2013-05-17 16:36:00,62.1,41.1,29.82,East,88,3.0,6.0,46,0.00,,,0.00,Wunderground v.1.15,2013-05-17 20:36:00,
2013-05-17 16:41:00,62.1,41.1,29.82,ESE,106,3.0,4.0,46,0.00,,,0.00,Wunderground v.1.15,2013-05-17 20:41:00,
2013-05-17 16:46:00,62.0,41.0,29.82,East,90,4.0,6.0,46,0.00,,,0.00,Wunderground v.1.15,2013-05-17 20:46:00,
2013-05-17 16:52:00,61.5,41.6,29.82,East,96,4.0,4.0,48,0.00,,,0.00,Wunderground v.1.15,2013-05-17 20:52:00,
2013-05-17 16:57:00,61.8,41.9,29.82,East,80,3.0,9.0,48,0.00,,,0.00,Wunderground v.1.15,2013-05-17 20:57:00,
2013-05-17 17:02:00,61.6,40.6,29.82,East,88,3.0,6.0,46,0.00,,,0.00,Wunderground v.1.15,2013-05-17 21:02:00,
2013-05-17 17:07:00,61.6,41.7,29.82,East,85,2.0,6.0,48,0.00,,,0.00,Wunderground v.1.15,2013-05-17 21:07:00,
2013-05-17 17:12:00,62.2,41.7,29.82,East,95,2.0,2.0,47,0.00,,,0.00,Wunderground v.1.15,2013-05-17 21:12:00,
2013-05-17 17:17:00,62.6,41.5,29.82,East,96,1.0,4.0,46,0.00,,,0.00,Wunderground v.1.15,2013-05-17 21:17:00,
2013-05-17 17:26:00,62.5,39.7,29.82,East,96,3.0,6.0,43,0.00,,,0.00,Wunderground v.1.15,2013-05-17 21:26:00,
2013-05-17 17:31:00,62.1,40.5,29.82,East,90,4.0,4.0,45,0.00,,,0.00,Wunderground v.1.15,2013-05-17 21:31:00,
2013-05-17 17:36:00,61.9,39.7,29.82,East,89,3.0,6.0,44,0.00,,,0.00,Wunderground v.1.15,2013-05-17 21:36:00,
2013-05-17 17:41:00,61.6,40.0,29.82,ENE,78,3.0,4.0,45,0.00,,,0.00,Wunderground v.1.15,2013-05-17 21:41:00,
2013-05-17 17:46:00,61.6,40.0,29.83,ENE,69,2.0,4.0,45,0.00,,,0.00,Wunderground v.1.15,2013-05-17 21:46:00,
2013-05-17 17:51:00,61.7,39.6,29.83,East,91,2.0,2.0,44,0.00,,,0.00,Wunderground v.1.15,2013-05-17 21:51:00,
2013-05-17 18:01:00,61.8,39.1,29.83,NE,42,1.0,4.0,43,0.00,,,0.00,Wunderground v.1.15,2013-05-17 22:01:00,
2013-05-17 18:06:00,62.0,39.8,29.83,East,95,1.0,5.0,44,0.00,,,0.00,Wunderground v.1.15,2013-05-17 22:06:00,
2013-05-17 18:11:00,62.1,39.3,29.83,East,94,2.0,2.0,43,0.00,,,0.00,Wunderground v.1.15,2013-05-17 22:11:00,
2013-05-17 18:16:00,62.0,40.4,29.83,East,94,2.0,4.0,45,0.00,,,0.00,Wunderground v.1.15,2013-05-17 22:16:00,
2013-05-17 18:21:00,62.1,39.9,29.83,East,97,1.0,4.0,44,0.00,,,0.00,Wunderground v.1.15,2013-05-17 22:21:00,
2013-05-17 18:31:00,61.3,38.6,29.83,East,97,2.0,2.0,43,0.00,,,0.00,Wunderground v.1.15,2013-05-17 22:31:00,
2013-05-17 18:36:00,60.8,38.7,29.84,East,96,2.0,4.0,44,0.00,,,0.00,Wunderground v.1.15,2013-05-17 22:36:00,
2013-05-17 18:41:00,60.8,38.7,29.84,East,93,1.0,4.0,44,0.00,,,0.00,Wunderground v.1.15,2013-05-17 22:41:00,
2013-05-17 18:46:00,60.7,38.6,29.84,East,96,2.0,4.0,44,0.00,,,0.00,Wunderground v.1.15,2013-05-17 22:46:00,
2013-05-17 18:51:00,60.2,39.3,29.84,East,96,1.0,1.0,46,0.00,,,0.00,Wunderground v.1.15,2013-05-17 22:51:00,
2013-05-17 18:56:00,59.6,38.8,29.84,East,96,1.0,4.0,46,0.00,,,0.00,Wunderground v.1.15,2013-05-17 22:56:00,
2013-05-17 19:06:00,58.8,38.1,29.84,East,96,1.0,2.0,46,0.00,,,0.00,Wunderground v.1.15,2013-05-17 23:06:00,
2013-05-17 19:11:00,58.6,38.4,29.84,East,96,1.0,1.0,47,0.00,,,0.00,Wunderground v.1.15,2013-05-17 23:11:00,
2013-05-17 19:16:00,58.2,39.1,29.84,East,96,0.0,4.0,49,0.00,,,0.00,Wunderground v.1.15,2013-05-17 23:16:00,
2013-05-17 19:21:00,58.0,38.4,29.85,East,96,0.0,4.0,48,0.00,,,0.00,Wunderground v.1.15,2013-05-17 23:21:00,
2013-05-17 19:26:00,57.8,41.3,29.85,East,96,0.0,4.0,54,0.00,,,0.00,Wunderground v.1.15,2013-05-17 23:26:00,
2013-05-17 19:36:00,56.9,40.4,29.85,East,96,0.0,4.0,54,0.00,,,0.00,Wunderground v.1.15,2013-05-17 23:36:00,
2013-05-17 19:41:00,56.5,40.5,29.85,East,96,0.0,4.0,55,0.00,,,0.00,Wunderground v.1.15,2013-05-17 23:41:00,
2013-05-17 19:46:00,56.0,41.4,29.85,East,96,0.0,4.0,58,0.00,,,0.00,Wunderground v.1.15,2013-05-17 23:46:00,
2013-05-17 19:51:00,55.7,39.8,29.85,East,96,0.0,4.0,55,0.00,,,0.00,Wunderground v.1.15,2013-05-17 23:51:00,
2013-05-17 19:56:00,55.7,39.8,29.85,East,96,0.0,4.0,55,0.00,,,0.00,Wunderground v.1.15,2013-05-17 23:56:00,
2013-05-17 20:01:00,55.5,39.6,29.85,East,96,0.0,4.0,55,0.00,,,0.00,Wunderground v.1.15,2013-05-18 00:01:00,
2013-05-17 20:07:00,55.2,39.3,29.85,East,96,0.0,4.0,55,0.00,,,0.00,Wunderground v.1.15,2013-05-18 00:07:00,
2013-05-17 20:16:00,54.6,39.7,29.85,East,96,0.0,4.0,57,0.00,,,0.00,Wunderground v.1.15,2013-05-18 00:16:00,
2013-05-17 20:21:00,54.4,39.9,29.85,East,96,0.0,4.0,58,0.00,,,0.00,Wunderground v.1.15,2013-05-18 00:21:00,
2013-05-17 20:26:00,54.3,40.3,29.86,East,96,0.0,4.0,59,0.00,,,0.00,Wunderground v.1.15,2013-05-18 00:26:00,
2013-05-17 20:31:00,54.2,39.7,29.86,East,96,0.0,4.0,58,0.00,,,0.00,Wunderground v.1.15,2013-05-18 00:31:00,
2013-05-17 20:37:00,54.1,39.2,29.86,East,96,0.0,4.0,57,0.00,,,0.00,Wunderground v.1.15,2013-05-18 00:37:00,
2013-05-17 20:42:00,54.1,39.2,29.86,East,96,0.0,4.0,57,0.00,,,0.00,Wunderground v.1.15,2013-05-18 00:42:00,
2013-05-17 20:47:00,54.0,39.5,29.86,East,96,0.0,4.0,58,0.00,,,0.00,Wunderground v.1.15,2013-05-18 00:47:00,
2013-05-17 20:52:00,53.9,39.5,29.86,East,96,0.0,4.0,58,0.00,,,0.00,Wunderground v.1.15,2013-05-18 00:52:00,
2013-05-17 20:57:00,53.9,39.5,29.87,East,96,0.0,4.0,58,0.00,,,0.00,Wunderground v.1.15,2013-05-18 00:57:00,
2013-05-17 21:02:00,54.1,39.6,29.87,East,96,0.0,4.0,58,0.00,,,0.00,Wunderground v.1.15,2013-05-18 01:02:00,
2013-05-17 21:11:00,53.8,39.8,29.87,East,96,0.0,4.0,59,0.00,,,0.00,Wunderground v.1.15,2013-05-18 01:11:00,
2013-05-17 21:16:00,53.6,40.0,29.87,East,96,0.0,4.0,60,0.00,,,0.00,Wunderground v.1.15,2013-05-18 01:16:00,
2013-05-17 21:21:00,53.3,40.6,29.88,East,96,0.0,4.0,62,0.00,,,0.00,Wunderground v.1.15,2013-05-18 01:21:00,
2013-05-17 21:26:00,53.1,40.4,29.88,East,96,0.0,4.0,62,0.00,,,0.00,Wunderground v.1.15,2013-05-18 01:26:00,
2013-05-17 21:31:00,53.0,40.3,29.88,East,96,0.0,4.0,62,0.00,,,0.00,Wunderground v.1.15,2013-05-18 01:31:00,
2013-05-17 21:36:00,53.1,40.4,29.88,East,96,0.0,4.0,62,0.00,,,0.00,Wunderground v.1.15,2013-05-18 01:36:00,
2013-05-17 21:46:00,52.6,41.2,29.88,East,96,0.0,4.0,65,0.00,,,0.00,Wunderground v.1.15,2013-05-18 01:46:00,
2013-05-17 21:51:00,52.3,41.3,29.88,East,96,0.0,4.0,66,0.00,,,0.00,Wunderground v.1.15,2013-05-18 01:51:00,
2013-05-17 21:56:00,51.9,41.3,29.89,East,96,0.0,4.0,67,0.00,,,0.00,Wunderground v.1.15,2013-05-18 01:56:00,
2013-05-17 22:01:00,51.6,41.0,29.89,East,96,0.0,4.0,67,0.00,,,0.00,Wunderground v.1.15,2013-05-18 02:01:00,
2013-05-17 22:06:00,51.3,40.7,29.89,East,96,0.0,4.0,67,0.00,,,0.00,Wunderground v.1.15,2013-05-18 02:06:00,
2013-05-17 22:16:00,50.9,41.1,29.89,East,96,0.0,4.0,69,0.00,,,0.00,Wunderground v.1.15,2013-05-18 02:16:00,
2013-05-17 22:21:00,50.8,41.0,29.89,East,96,0.0,4.0,69,0.00,,,0.00,Wunderground v.1.15,2013-05-18 02:21:00,
2013-05-17 22:26:00,50.6,40.8,29.89,East,96,0.0,4.0,69,0.00,,,0.00,Wunderground v.1.15,2013-05-18 02:26:00,
2013-05-17 22:31:00,50.3,40.9,29.89,East,96,0.0,4.0,70,0.00,,,0.00,Wunderground v.1.15,2013-05-18 02:31:00,
2013-05-17 22:36:00,50.2,40.8,29.89,East,96,0.0,4.0,70,0.00,,,0.00,Wunderground v.1.15,2013-05-18 02:36:00,
2013-05-17 22:41:00,50.1,40.7,29.89,East,96,0.0,4.0,70,0.00,,,0.00,Wunderground v.1.15,2013-05-18 02:41:00,
2013-05-17 22:51:00,50.3,40.1,29.89,East,96,0.0,4.0,68,0.00,,,0.00,Wunderground v.1.15,2013-05-18 02:51:00,
2013-05-17 22:56:00,50.4,40.6,29.90,East,96,0.0,4.0,69,0.00,,,0.00,Wunderground v.1.15,2013-05-18 02:56:00,
2013-05-17 23:01:00,50.3,40.5,29.90,East,96,0.0,4.0,69,0.00,,,0.00,Wunderground v.1.15,2013-05-18 03:01:00,
2013-05-17 23:06:00,50.0,40.2,29.90,East,96,0.0,4.0,69,0.00,,,0.00,Wunderground v.1.15,2013-05-18 03:06:00,
2013-05-17 23:11:00,49.9,40.1,29.90,East,96,0.0,4.0,69,0.00,,,0.00,Wunderground v.1.15,2013-05-18 03:11:00,
2013-05-17 23:21:00,49.6,40.2,29.90,East,96,0.0,4.0,70,0.00,,,0.00,Wunderground v.1.15,2013-05-18 03:21:00,
2013-05-17 23:26:00,49.6,40.2,29.90,East,96,0.0,4.0,70,0.00,,,0.00,Wunderground v.1.15,2013-05-18 03:26:00,
2013-05-17 23:31:00,49.4,40.7,29.90,East,96,0.0,4.0,72,0.00,,,0.00,Wunderground v.1.15,2013-05-18 03:31:00,
2013-05-17 23:36:00,48.9,40.6,29.90,East,96,0.0,4.0,73,0.00,,,0.00,Wunderground v.1.15,2013-05-18 03:36:00,
2013-05-17 23:41:00,48.7,40.8,29.90,East,96,0.0,4.0,74,0.00,,,0.00,Wunderground v.1.15,2013-05-18 03:41:00,
2013-05-17 23:46:00,48.6,40.7,29.90,East,96,0.0,4.0,74,0.00,,,0.00,Wunderground v.1.15,2013-05-18 03:46:00,
2013-05-17 23:52:00,48.5,40.6,29.90,East,96,0.0,4.0,74,0.00,,,0.00,Wunderground v.1.15,2013-05-18 03:52:00,
2013-05-17 23:57:00,48.6,40.3,29.90,East,96,0.0,4.0,73,0.00,,,0.00,Wunderground v.1.15,2013-05-18 03:57:00,